TimeCDT,TemperatureF,Dew PointF,Humidity,Sea Level PressureIn,VisibilityMPH,Wind Direction,Wind SpeedMPH,Gust SpeedMPH,PrecipitationIn,Events,Conditions,WindDirDegrees,DateUTC
12:15 AM,28.4,19.4,69,29.97,10.0,Calm,Calm,-,N/A,,Clear,0,2012-10-08 05:15:00
12:35 AM,26.6,17.6,69,29.97,10.0,Calm,Calm,-,N/A,,Clear,0,2012-10-08 05:35:00
12:55 AM,28.4,17.6,64,29.97,10.0,Calm,Calm,-,N/A,,Clear,0,2012-10-08 05:55:00
1:15 AM,28.4,17.6,64,29.96,10.0,Calm,Calm,-,N/A,,Clear,0,2012-10-08 06:15:00
1:35 AM,32.0,19.4,60,29.96,10.0,Calm,Calm,-,N/A,,Clear,0,2012-10-08 06:35:00
1:55 AM,35.6,17.6,48,29.95,10.0,South,3.5,-,N/A,,Clear,190,2012-10-08 06:55:00
2:15 AM,33.8,19.4,56,29.95,10.0,Calm,Calm,-,N/A,,Clear,0,2012-10-08 07:15:00
2:35 AM,35.6,19.4,52,29.95,10.0,Calm,Calm,-,N/A,,Clear,0,2012-10-08 07:35:00
2:55 AM,35.6,19.4,52,29.93,10.0,SW,3.5,-,N/A,,Clear,220,2012-10-08 07:55:00
3:15 AM,35.6,19.4,52,29.93,10.0,SSW,8.1,-,N/A,,Clear,210,2012-10-08 08:15:00
3:35 AM,35.6,19.4,52,29.92,10.0,SSW,3.5,-,N/A,,Clear,210,2012-10-08 08:35:00
3:55 AM,35.6,19.4,52,29.92,10.0,SSW,8.1,-,N/A,,Clear,200,2012-10-08 08:55:00
4:15 AM,35.6,19.4,52,29.92,10.0,SSW,5.8,-,N/A,,Clear,200,2012-10-08 09:15:00
4:35 AM,35.6,19.4,52,29.91,10.0,SSW,4.6,-,N/A,,Clear,200,2012-10-08 09:35:00
4:55 AM,35.6,19.4,52,29.91,10.0,SSW,5.8,-,N/A,,Clear,200,2012-10-08 09:55:00
5:15 AM,35.6,19.4,52,29.91,10.0,SSW,5.8,-,N/A,,Clear,200,2012-10-08 10:15:00
5:35 AM,35.6,19.4,52,29.91,10.0,South,3.5,-,N/A,,Clear,190,2012-10-08 10:35:00
5:55 AM,35.6,19.4,52,29.90,10.0,SSW,3.5,-,N/A,,Clear,200,2012-10-08 10:55:00
6:15 AM,32.0,19.4,60,29.90,10.0,Calm,Calm,-,N/A,,Clear,0,2012-10-08 11:15:00
6:35 AM,32.0,19.4,60,29.90,10.0,SE,3.5,-,N/A,,Clear,140,2012-10-08 11:35:00
6:55 AM,32.0,19.4,60,29.89,10.0,SSE,3.5,-,N/A,,Clear,150,2012-10-08 11:55:00
7:15 AM,32.0,21.2,64,29.88,10.0,SSE,3.5,-,N/A,,Clear,160,2012-10-08 12:15:00
7:35 AM,33.8,21.2,60,29.89,10.0,SSE,3.5,-,N/A,,Clear,160,2012-10-08 12:35:00
7:55 AM,35.6,21.2,56,29.89,10.0,South,4.6,-,N/A,,Clear,180,2012-10-08 12:55:00
8:15 AM,37.4,23.0,56,29.88,10.0,South,4.6,-,N/A,,Clear,170,2012-10-08 13:15:00
8:35 AM,39.2,23.0,52,29.88,10.0,SSW,5.8,-,N/A,,Clear,200,2012-10-08 13:35:00
8:55 AM,39.2,24.8,56,29.88,10.0,SSW,8.1,17.3,N/A,,Clear,200,2012-10-08 13:55:00
9:15 AM,42.8,26.6,53,29.87,10.0,SSW,9.2,-,N/A,,Scattered Clouds,210,2012-10-08 14:15:00
9:35 AM,44.6,26.6,49,29.87,10.0,SSW,13.8,19.6,N/A,,Overcast,200,2012-10-08 14:35:00
9:55 AM,46.4,28.4,50,29.86,10.0,SSW,11.5,20.7,N/A,,Overcast,210,2012-10-08 14:55:00
10:15 AM,46.4,28.4,50,29.85,10.0,SSW,12.7,18.4,N/A,,Scattered Clouds,200,2012-10-08 15:15:00
10:35 AM,46.4,28.4,50,29.85,10.0,South,9.2,-,N/A,,Mostly Cloudy,190,2012-10-08 15:35:00
10:55 AM,46.4,30.2,53,29.85,10.0,SW,8.1,16.1,N/A,,Overcast,220,2012-10-08 15:55:00
11:15 AM,50.0,30.2,47,29.84,10.0,SSW,12.7,19.6,N/A,,Mostly Cloudy,210,2012-10-08 16:15:00
11:35 AM,50.0,30.2,47,29.85,10.0,SW,12.7,19.6,N/A,,Overcast,220,2012-10-08 16:35:00
11:55 AM,50.0,30.2,47,29.84,10.0,SSW,15.0,21.9,N/A,,Overcast,210,2012-10-08 16:55:00
12:15 PM,50.0,30.2,47,29.83,10.0,SSW,13.8,20.7,N/A,,Overcast,210,2012-10-08 17:15:00
12:35 PM,50.0,30.2,47,29.82,10.0,SSW,13.8,23.0,N/A,,Overcast,210,2012-10-08 17:35:00
12:55 PM,50.0,30.2,47,29.81,10.0,SSW,9.2,19.6,N/A,,Overcast,210,2012-10-08 17:55:00
1:15 PM,50.0,32.0,50,29.79,10.0,SSW,9.2,16.1,N/A,,Overcast,210,2012-10-08 18:15:00
1:35 PM,51.8,32.0,47,29.78,10.0,SSW,10.4,16.1,N/A,,Overcast,200,2012-10-08 18:35:00
1:55 PM,51.8,32.0,47,29.77,10.0,SSW,11.5,27.6,N/A,,Overcast,200,2012-10-08 18:55:00
2:15 PM,51.8,32.0,47,29.76,10.0,SSW,16.1,23.0,N/A,,Overcast,200,2012-10-08 19:15:00
2:35 PM,51.8,32.0,47,29.75,10.0,SSW,10.4,20.7,N/A,,Overcast,200,2012-10-08 19:35:00
3:15 PM,53.6,32.0,44,29.74,10.0,South,9.2,18.4,N/A,,Overcast,190,2012-10-08 20:15:00
3:35 PM,53.6,32.0,44,29.73,10.0,SSW,11.5,17.3,N/A,,Overcast,200,2012-10-08 20:35:00
3:55 PM,53.6,32.0,44,29.72,10.0,SSW,11.5,23.0,N/A,,Overcast,210,2012-10-08 20:55:00
4:15 PM,53.6,32.0,44,29.71,10.0,SSW,11.5,21.9,N/A,,Overcast,210,2012-10-08 21:15:00
4:35 PM,55.4,32.0,41,29.71,10.0,SSW,10.4,20.7,N/A,,Overcast,200,2012-10-08 21:35:00
4:55 PM,55.4,32.0,41,29.71,10.0,South,13.8,18.4,N/A,,Overcast,190,2012-10-08 21:55:00
5:15 PM,55.4,32.0,41,29.71,10.0,SSW,9.2,16.1,N/A,,Overcast,200,2012-10-08 22:15:00
5:55 PM,55.4,32.0,41,29.71,10.0,SSW,15.0,21.9,N/A,,Overcast,210,2012-10-08 22:55:00
6:15 PM,55.4,33.8,44,29.71,10.0,SW,19.6,28.8,N/A,Rain,Rain,230,2012-10-08 23:15:00
6:35 PM,53.6,33.8,47,29.71,10.0,SW,12.7,26.5,N/A,,Light Drizzle,220,2012-10-08 23:35:00
6:55 PM,55.4,33.8,44,29.70,10.0,SSW,10.4,20.7,N/A,,Overcast,210,2012-10-08 23:55:00
7:15 PM,55.4,33.8,44,29.70,10.0,SSW,12.7,20.7,N/A,,Overcast,210,2012-10-09 00:15:00
7:35 PM,55.4,32.0,41,29.70,10.0,SSW,12.7,19.6,N/A,,Overcast,200,2012-10-09 00:35:00
8:15 PM,55.4,32.0,41,29.71,10.0,SSW,9.2,17.3,N/A,,Overcast,200,2012-10-09 01:15:00
8:35 PM,55.4,32.0,41,29.70,10.0,SSW,10.4,16.1,N/A,,Overcast,210,2012-10-09 01:35:00
8:55 PM,55.4,32.0,41,29.69,10.0,SSW,17.3,26.5,N/A,,Mostly Cloudy,200,2012-10-09 01:55:00
9:15 PM,55.4,32.0,41,29.69,10.0,SSW,17.3,24.2,N/A,,Mostly Cloudy,200,2012-10-09 02:15:00
9:35 PM,55.4,32.0,41,29.69,10.0,SSW,13.8,23.0,N/A,,Overcast,200,2012-10-09 02:35:00
9:55 PM,53.6,32.0,44,29.69,10.0,SSW,15.0,25.3,N/A,,Overcast,200,2012-10-09 02:55:00
10:35 PM,53.6,32.0,44,29.70,10.0,SW,16.1,26.5,N/A,Rain,Light Rain,220,2012-10-09 03:35:00
10:55 PM,53.6,32.0,44,29.70,10.0,SSW,15.0,21.9,N/A,,Overcast,210,2012-10-09 03:55:00
11:15 PM,53.6,32.0,44,29.70,10.0,SW,15.0,23.0,N/A,,Overcast,220,2012-10-09 04:15:00
11:35 PM,53.6,32.0,44,29.69,10.0,SW,19.6,27.6,N/A,,Overcast,220,2012-10-09 04:35:00
11:55 PM,53.6,32.0,44,29.70,10.0,SW,12.7,28.8,N/A,,Overcast,220,2012-10-09 04:55:00